Iron Mountain, MI

3:15 AM CST on January 18, 2017 (GMT -0600)
Ford

Weather History for KIMT - September, 2012

Change the Weather History Date:

Thursday, September 20, 2012

  Actual Average Record
Temperature  
Mean Temperature 48 °F -  
Max Temperature 57 °F 65 °F 85 °F (1940)
Min Temperature 39 °F 45 °F 23 °F (1956)
Degree Days  
Heating Degree Days 17    
Moisture  
Dew Point 44 °F    
Average Humidity 81    
Maximum Humidity 93    
Minimum Humidity 60    
Precipitation  
Precipitation 0.01 in - - ()
Sea Level Pressure  
Sea Level Pressure 29.75 in    
Wind  
Wind Speed 8 mph (West)    
Max Wind Speed 14 mph    
Max Gust Speed 20 mph    
Visibility 10 miles    
Events Rain    
Averages and records for this station are not official NWS values.
T = Trace of Precipitation, MM = Missing Value Source: NWS Daily Summary

Daily Weather History Graph

Daily Weather History Graph

Search for Another Location

Airport or City:

Trip Planner

Search our weather history database for the weather conditions in past years. The results will help you decide how hot, cold, wet, or windy it might be!

Date:

Astronomy

Sep. 20, 2012 Rise Set
Actual Time 6:37 AM CDT 6:52 PM CDT
Civil Twilight 6:07 AM CDT 7:22 PM CDT
Nautical Twilight 5:32 AM CDT 7:57 PM CDT
Astronomical Twilight 4:56 AM CDT 8:33 PM CDT
Moon 12:14 PM CDT (9/20) 9:35 PM CDT (9/20)
Length of Visible Light 13h 14m
Length of Day
12h 15m
Waxing Crescent, 27% of the Moon is Illuminated
Sep 20
Waxing Crescent
Sep 22
First Quarter
Sep 29
Full
Oct 8
Last Quarter
Oct 15
New

Hourly Weather History & Observations

Time (CDT) Temp. Windchill Dew Point Humidity Pressure Visibility Wind Dir Wind Speed Gust Speed Precip Events Conditions
12:54 AM 46.9 °F - 44.1 °F 90% 29.69 in 10.0 mi WSW 4.6 mph - N/A   Partly Cloudy
1:54 AM 46.9 °F - 44.1 °F 90% 29.70 in 10.0 mi WSW 6.9 mph - N/A   Clear
2:54 AM 48.0 °F - 44.1 °F 86% 29.68 in 10.0 mi West 8.1 mph - N/A   Overcast
3:54 AM 48.0 °F - 44.1 °F 86% 29.68 in 10.0 mi WSW 6.9 mph - N/A   Overcast
4:08 AM 48.2 °F - 44.6 °F 87% 29.66 in 10.0 mi WSW 8.1 mph - N/A   Overcast
4:39 AM 48.2 °F - 44.6 °F 87% 29.67 in 10.0 mi WSW 11.5 mph - N/A   Overcast
5:16 AM 48.2 °F - 44.6 °F 87% 29.67 in 10.0 mi WSW 11.5 mph - N/A   Overcast
5:54 AM 48.9 °F - 45.0 °F 86% 29.69 in 10.0 mi West 6.9 mph - N/A   Overcast
6:54 AM 48.9 °F - 45.0 °F 86% 29.70 in 10.0 mi West 9.2 mph 18.4 mph N/A   Overcast
8:50 AM 51.8 °F - 44.6 °F 76% 29.70 in 10.0 mi West 10.4 mph 18.4 mph N/A   Mostly Cloudy
8:54 AM 52.0 °F - 45.0 °F 77% 29.71 in 10.0 mi West 13.8 mph 18.4 mph N/A   Mostly Cloudy
9:22 AM 51.8 °F - 44.6 °F 76% 29.70 in 10.0 mi West 6.9 mph 17.3 mph N/A   Overcast
9:54 AM 53.1 °F - 44.1 °F 71% 29.72 in 10.0 mi West 12.7 mph 19.6 mph N/A   Overcast
10:54 AM 54.0 °F - 43.0 °F 66% 29.73 in 10.0 mi WNW 12.7 mph 19.6 mph N/A   Overcast
11:54 AM 55.0 °F - 43.0 °F 64% 29.74 in 10.0 mi WNW 11.5 mph 19.6 mph N/A   Mostly Cloudy
12:54 PM 55.9 °F - 42.1 °F 60% 29.75 in 10.0 mi WNW 10.4 mph - N/A   Overcast
1:54 PM 55.0 °F - 45.0 °F 69% 29.76 in 10.0 mi West 11.5 mph 18.4 mph 0.00 in   Overcast
2:54 PM 55.0 °F - 46.0 °F 72% 29.77 in 10.0 mi West 9.2 mph - 0.01 in   Mostly Cloudy
3:54 PM 52.0 °F - 45.0 °F 77% 29.78 in 10.0 mi West 5.8 mph - 0.00 in Rain Light Rain
4:54 PM 52.0 °F - 45.0 °F 77% 29.81 in 10.0 mi West 8.1 mph - 0.00 in   Mostly Cloudy
5:54 PM 52.0 °F - 46.0 °F 80% 29.83 in 10.0 mi WNW 11.5 mph 18.4 mph 0.00 in Rain Light Rain
6:54 PM 48.0 °F - 43.0 °F 83% 29.85 in 8.0 mi WNW 6.9 mph - 0.00 in Rain Light Rain
7:54 PM 48.0 °F - 43.0 °F 83% 29.85 in 10.0 mi West 3.5 mph - 0.00 in   Overcast
8:54 PM 46.0 °F 43.9 °F 43.0 °F 89% 29.84 in 10.0 mi West 4.6 mph - N/A   Partly Cloudy
9:54 PM 44.1 °F - 41.0 °F 89% 29.84 in 10.0 mi Calm Calm - N/A   Clear
10:54 PM 41.0 °F - 39.0 °F 93% 29.84 in 10.0 mi Calm Calm - N/A   Mostly Cloudy
11:54 PM 39.0 °F - 37.0 °F 93% 29.83 in 10.0 mi Calm Calm - N/A   Clear